EBBR

Brussels Airport

Airport
ICAO code
EBBR
IATA Code
BRU
Summary
ICAO Region
EUR
ICAO Territory
Location

Zaventem Diegem, Machelen,

Serving
Brussel
Elevation
184 ft
Coordinates
50° 53' 56" N , 4° 29' 9" E
KCC
Airport BS
Bird Strike
Metar
Observation
EBBR 072350Z 16003KT CAVOK M03/M04 Q1038 NOSIG
Station
Bruxelles National
Date/Time
2023-02-07 23:50:00
Wind direction
160°
Wind speed
03 kts
Lowest cloud amount
clouds and visibility OK
Temperature
-3°C
Dew point
-4°C
Humidity
92%
QNH
1038 hPa
Weather condition
n/a

Description

International airport serving the capital of Belgium.

Climatology

Temperate Marine climate/Oceanic climate (Köppen climate classification Cfb) - Moderately cool summer and comparatively warm winter.

Runways

Designator Length Width Surface Rops
2/20 2987 50 ASP Yes/Yes
07R/25L 3211 45 ASP Yes/Yes
07L/25R 3638 45 CON Yes/Yes

SKYbrary Partners:

Safety knowledge contributed by: